Akron Canton, OH

7:45 PM EST on February 23, 2018 (GMT -0500)
Akron-Canton Regional

Weather History for KCAK - December, 2012

Change the Weather History Date:

Friday, December 28, 2012

  Actual Average Record
Temperature  
Mean Temperature 27 °F 27 °F  
Max Temperature 31 °F 34 °F 66 °F (1982)
Min Temperature 23 °F 21 °F -5 °F (1924)
Degree Days  
Heating Degree Days 38 38  
Month to date heating degree days 734 959  
Since 1 July heating degree days 2028 2218  
Cooling Degree Days 0 0  
Month to date cooling degree days 0 0  
Year to date cooling degree days 1046 652  
Moisture  
Dew Point 20 °F    
Average Humidity 76    
Maximum Humidity 88    
Minimum Humidity 63    
Precipitation  
Precipitation 0.00 in 0.09 in 0.87 in (1988)
Month to date precipitation 3.79 2.58  
Year to date precipitation 37.51 39.36  
Snow  
Snow 0.00 in 0.40 in - ()
Month to date snowfall 8.9 9.1  
Since 1 July snowfall 9.4 12.5  
Snow Depth 5.00 in    
Sea Level Pressure  
Sea Level Pressure 30.10 in    
Wind  
Wind Speed 5 mph (South)    
Max Wind Speed 12 mph    
Max Gust Speed 25 mph    
Visibility 7 miles    
Events      
T = Trace of Precipitation, MM = Missing Value Source: NWS Daily Summary

Daily Weather History Graph

Daily Weather History Graph

Search for Another Location

Airport or City:

Trip Planner

Search our weather history database for the weather conditions in past years. The results will help you decide how hot, cold, wet, or windy it might be!

Date:

Astronomy

Dec. 28, 2012 Rise Set
Actual Time 7:49 AM EST 5:05 PM EST
Civil Twilight 7:18 AM EST 5:36 PM EST
Nautical Twilight 6:44 AM EST 6:11 PM EST
Astronomical Twilight 6:10 AM EST 6:44 PM EST
Moon 5:41 PM EST (12/28) 7:42 AM EST (12/28)
Length of Visible Light 10h 17m
Length of Day
9h 15m
Full, 100% of the Moon is Illuminated
Dec 28
Full
Jan 4
Last Quarter
Jan 11
New
Jan 18
First Quarter
Jan 26
Full

Hourly Weather History & Observations

Time (EST) Temp. Windchill Dew Point Humidity Pressure Visibility Wind Dir Wind Speed Gust Speed Precip Events Conditions
12:51 AM 27.0 °F 18.7 °F 21.0 °F 78% 30.14 in 8.0 mi West 8.1 mph - N/A   Overcast
1:51 AM 26.1 °F 19.4 °F 21.0 °F 81% 30.14 in 8.0 mi WSW 5.8 mph - N/A   Overcast
2:51 AM 26.1 °F 19.4 °F 21.9 °F 84% 30.16 in 7.0 mi West 5.8 mph - N/A   Overcast
3:51 AM 26.1 °F 20.5 °F 21.0 °F 81% 30.17 in 7.0 mi West 4.6 mph - N/A   Overcast
4:51 AM 25.0 °F 19.3 °F 19.9 °F 81% 30.17 in 7.0 mi West 4.6 mph - N/A   Overcast
5:51 AM 24.1 °F - 19.9 °F 84% 30.17 in 7.0 mi Calm Calm - N/A   Overcast
6:43 AM 24.8 °F 19.1 °F 19.4 °F 80% 30.13 in 7.0 mi SW 4.6 mph - N/A   Overcast
6:51 AM 24.1 °F 18.2 °F 19.9 °F 84% 30.17 in 6.0 mi SW 4.6 mph - N/A   Overcast
7:51 AM 24.1 °F - 19.9 °F 84% 30.15 in 7.0 mi Calm Calm - N/A   Overcast
8:51 AM 25.0 °F 19.3 °F 19.9 °F 81% 30.17 in 7.0 mi SW 4.6 mph - N/A   Overcast
9:51 AM 25.0 °F 18.1 °F 21.0 °F 85% 30.17 in 5.0 mi SSW 5.8 mph - N/A   Overcast
10:51 AM 26.1 °F 20.5 °F 21.0 °F 81% 30.17 in 5.0 mi South 4.6 mph - N/A   Haze
11:51 AM 27.0 °F 18.7 °F 21.0 °F 78% 30.19 in 7.0 mi WSW 8.1 mph - N/A   Overcast
12:37 PM 28.4 °F 23.3 °F 21.2 °F 74% 30.11 in 7.0 mi WSW 4.6 mph - N/A   Mostly Cloudy
12:51 PM 28.0 °F 22.8 °F 21.9 °F 78% 30.15 in 7.0 mi Variable 4.6 mph - N/A   Overcast
1:51 PM 28.9 °F - 21.0 °F 72% 30.12 in 8.0 mi Calm Calm - N/A   Mostly Cloudy
2:51 PM 30.9 °F - 19.9 °F 64% 30.07 in 8.0 mi Calm Calm - N/A   Mostly Cloudy
3:51 PM 30.0 °F 22.4 °F 21.0 °F 69% 30.06 in 10.0 mi ESE 8.1 mph - N/A   Mostly Cloudy
4:51 PM 28.9 °F 22.8 °F 19.9 °F 69% 30.06 in 7.0 mi ESE 5.8 mph - N/A   Mostly Cloudy
5:51 PM 28.0 °F 20.8 °F 19.0 °F 69% 30.05 in 7.0 mi ESE 6.9 mph - N/A   Scattered Clouds
6:51 PM 26.1 °F 18.4 °F 18.0 °F 71% 30.05 in 6.0 mi East 6.9 mph - N/A   Haze
7:51 PM 26.6 °F 18.2 °F 17.6 °F 69% 29.99 in 7.0 mi East 8.1 mph - N/A   Scattered Clouds
8:51 PM 27.0 °F 18.7 °F 19.9 °F 75% 30.01 in 7.0 mi ESE 8.1 mph - N/A   Overcast
9:51 PM 26.6 °F 20.0 °F 19.4 °F 74% 29.93 in 6.0 mi East 5.8 mph - N/A   Haze
10:51 PM 26.1 °F 18.4 °F 19.9 °F 78% 29.96 in 7.0 mi ESE 6.9 mph - N/A   Overcast
11:51 PM 27.0 °F 19.5 °F 19.9 °F 75% 29.92 in 5.0 mi NE 6.9 mph - N/A   Haze